#timestamp,LO_Frequency,Hit,StdDev 
1701381615.7,286046999.9,N
1701381635.6,286047000.1,N
1701381655.4,286047000.9,N
1701381675.2,286046998.2,N
1701381695.1,286047000.9,N
1701381696.0,286047000.9,N
1701381715.8,286047001.0,N
1701381735.7,286046999.0,N
1701381755.5,286046998.3,N
1701381775.3,286046998.7,N
1701381795.2,286046998.4,N
1701381815.0,286047001.1,N
1701381815.9,286047001.1,N
1701381835.8,286046998.1,N
1701381855.6,286047001.2,N
1701381875.5,286046998.1,N
1701381895.4,286047000.0,N
1701381915.2,286046999.9,N
1701381935.1,286046999.0,N
1701381936.0,286046999.0,N
1701381955.8,286046999.0,N
1701381975.6,286046996.5,Y
1701381995.5,286046997.0,P
1701382015.3,286046998.9,N
1701382035.1,286046998.6,N
1701382055.9,286046998.3,N
1701382075.7,286046996.8,Y
1701382095.6,286047000.8,P
1701382115.4,286046998.3,N
1701382135.2,286047001.1,N
1701382155.1,286047001.0,N
1701382156.0,286047001.0,N
1701382175.8,286047000.8,N
1701382195.7,286046998.5,N
1701382215.5,286047001.1,N
1701382235.3,286047000.6,N
1701382255.2,286046999.4,N
1701382275.0,286046999.3,N
1701382275.9,286046999.3,N
1701382295.7,286046997.0,N
1701382315.6,286046999.5,N
1701382335.4,286047001.1,N
1701382355.3,286047000.5,N
1701382375.1,286047000.6,N
1701382376.0,286047000.6,N
1701382395.8,286047000.0,N
1701382415.7,286047000.4,N
1701382435.5,286047002.8,N
1701382455.3,286047000.6,N
1701382475.2,286047000.6,N
1701382495.0,286047000.9,N
1701382495.9,286047000.9,N
1701382515.8,286047002.7,N
1701382535.6,286047002.7,N
1701382555.5,286047002.4,N
1701382575.3,286046999.9,N
1701382595.1,286046999.8,N
1701382615.9,286047001.0,N
1701382635.7,286047000.1,N
1701382655.5,286047000.9,N
1701382675.4,286047002.3,N
1701382695.2,286047000.5,N
1701382715.1,286047000.3,N
1701382716.0,286047000.3,N
1701382735.8,286047001.2,N
1701382755.6,286047000.1,N
1701382775.5,286047002.6,N
1701382795.3,286047000.1,N
1701382815.2,286047002.7,N
1701382835.9,286047000.4,N
1701382855.7,286047001.2,N
1701382875.6,286047001.0,N
1701382895.4,286047000.5,N
1701382915.3,286047000.0,N
1701382935.1,286047001.6,N
1701382936.0,286047001.6,N
1701382955.8,286047001.8,N
1701382975.7,286047001.7,N
1701382995.5,286047001.6,N
1701383015.4,286047002.5,N
1701383035.2,286047004.4,Y
1701383055.0,286047000.5,P
1701383055.9,286047000.5,N
1701383075.8,286047000.6,N
1701383095.6,286047002.4,Y
1701383115.5,286047000.2,P
1701383135.3,286047000.4,N
1701383155.1,286047000.0,N
1701383175.9,286047000.9,Y
1701383195.7,286047000.1,P
1701383215.5,286047002.0,P
1701383235.4,286047002.5,N
1701383255.2,286046999.8,N
1701383275.0,286047001.0,N
1701383276.0,286047001.0,N
1701383295.8,286047002.8,Y
1701383315.6,286046998.5,P
1701383335.5,286046998.4,N
1701383355.3,286046998.3,N
1701383375.1,286046999.3,N
1701383395.9,286046998.8,N
1701383415.7,286046998.5,N
1701383435.6,286046999.3,N
1701383455.4,286046998.4,N
1701383475.2,286047001.2,N
1701383495.1,286047000.5,N
1701383496.0,286047000.5,N
1701383515.8,286046998.3,N
1701383535.7,286046998.4,N
1701383555.5,286046999.4,N
1701383575.3,286046999.2,N
1701383595.2,286046996.8,Y
1701383615.0,286046996.9,P
1701383615.9,286046996.9,N
1701383635.7,286046996.6,P
1701383655.6,286046996.9,N
1701383675.4,286046996.8,Y
1701383695.3,286047000.6,P
1701383715.1,286047000.3,N
1701383735.8,286047000.3,N
1701383755.7,286047000.8,N
1701383775.5,286046998.9,N
1701383795.4,286046999.4,N
1701383815.2,286046999.5,N
1701383835.0,286046994.9,Y
1701383835.9,286046994.9,P
1701383855.8,286046996.8,N
1701383875.6,286046999.5,N
1701383895.4,286046999.3,N
1701383915.3,286046999.1,N
1701383935.1,286046996.7,N
1701383955.9,286046997.3,N
1701383975.7,286046997.2,N
1701383995.5,286046995.0,Y
1701384015.4,286046998.4,P
1701384035.2,286046999.2,N
1701384055.0,286046998.2,P
1701384056.0,286046998.2,Y
1701384075.8,286046998.1,P
1701384095.6,286046998.9,P
1701384115.5,286046997.2,P
1701384135.3,286046997.0,Y
1701384155.1,286047000.3,P
1701384175.9,286047002.8,N
1701384195.7,286047000.8,N
1701384215.6,286047000.7,N
1701384235.4,286047002.5,N
1701384255.2,286047002.4,N
1701384275.1,286047000.2,N
1701384276.0,286047000.2,N
1701384295.8,286047000.8,N
1701384315.7,286046998.7,N
1701384335.5,286046998.1,N
1701384355.3,286046998.8,N
1701384375.2,286046998.3,N
1701384395.0,286046999.3,N
1701384395.9,286046999.3,N
1701384415.8,286046997.1,N
1701384435.6,286046997.2,N
1701384455.4,286046997.4,N
1701384475.3,286046995.3,N
1701384495.1,286046995.3,N
1701384515.8,286046997.6,N
1701384535.7,286046999.6,N
1701384555.5,286046999.4,N
1701384575.4,286046999.2,N
1701384595.2,286046999.1,N
1701384615.0,286046999.0,N
1701384615.9,286046999.0,N
1701384635.8,286047001.2,N
1701384655.1,286046998.3,N
1701384656.0,286046998.3,N
1701384675.8,286046996.5,N
1701384695.7,286046995.0,N
1701384715.5,286046997.6,N
1701384735.3,286046997.7,N
1701384755.2,286046996.4,N
1701384775.0,286046995.5,N
1701384775.9,286046995.5,N
1701384795.8,286046993.3,Y
1701384815.6,286046997.1,P
1701384835.4,286046997.9,P
1701384855.3,286046995.1,P
1701384875.1,286046997.7,N
1701384895.9,286046996.9,N
1701384915.7,286046994.9,Y
1701384935.5,286046998.7,P
1701384955.4,286046998.9,N
1701384975.2,286046998.3,N
1701384995.1,286047000.7,N
1701384996.0,286047000.7,N
1701385015.8,286047000.8,N
1701385035.6,286047000.7,N
1701385055.5,286046998.7,N
1701385075.3,286046998.6,N
1701385095.1,286046998.7,N
1701385115.9,286046996.6,N
1701385135.7,286046997.2,N
1701385155.6,286046996.9,N
1701385205.4,286046996.7,E
